Flag for South Africa Weather past 2 weeks in Port Elizabeth, South Africa

Now
59 °F

Clear.


Feels Like: 56 °F
Forecast: 46 / 79 °F
Wind: 16 mph from Northeast

Location: Port Elizabeth Airport

Current Time: Jul 29, 2014 at 2:54:01 AM

Latest Report: Jul 29, 2014 at 2:00 AM


Visibility: 10 mi

Pressure: 30.48 "Hg

Humidity: 68%

Dew point: 48 °F

Location of Port ElizabethLocation

Historic Weather in Port Elizabeth — Graph

°F

Port Elizabeth temperature yesterday

Maximum temperature yesterday: 66 °F (at 3:00 PM)
Minimum temperature yesterday: 52 °F (at 8:00 PM)
Average temperature yesterday: 59 °F

Past Weeks' High & Low Weather Summary

 TemperatureHumidityPressure
High81 °F (Jul 24, 3:00 PM)94% (Jul 14, 2:00 AM)30.57 "Hg (Jul 14, 2:00 AM)
Low39 °F (Jul 16, 4:00 AM)26% (Jul 24, 3:00 PM)29.59 "Hg (Jul 17, 3:01 PM)
Average58 °F68%30.11 "Hg
* Reported Jul 14 1:00 AM — Jul 29 1:00 AM, Port Elizabeth, Weather by CustomWeather, © 2014

Note: Actual official high and low records may vary slightly from our data, if they occured in-between our weather recording intervals... More about our weather records

Advertising

Port Elizabeth weather history for previous 24 hours

 ConditionsComfort  
Time TempWeatherWind HumidityBarometerVisibility
1:00 AM
Jul 29
59 °FClear.14 mph68%30.54 "Hg10 mi
12:00 AM59 °FClear.14 mph68%30.51 "Hg10 mi
11:00 PM
Jul 28
59 °FClear.10 mph68%30.54 "Hg10 mi
10:00 PM59 °FClear.10 mph68%30.54 "Hg10 mi
9:00 PM52 °FPassing clouds.5 mph82%30.54 "HgN/A
8:00 PM52 °FPassing clouds.6 mph82%30.54 "HgN/A
7:00 PM54 °FClear.5 mph77%30.54 "Hg10 mi
5:00 PM63 °FPassing clouds.5 mph64%30.54 "HgN/A
4:00 PM64 °FPassing clouds.7 mph68%30.54 "HgN/A
3:00 PM66 °FScattered clouds.5 mph60%30.54 "HgN/A
2:00 PM64 °FPassing clouds.9 mph68%30.54 "HgN/A
1:00 PM64 °FPassing clouds.15 mph68%30.57 "HgN/A
12:00 PM63 °FSunny.15 mph73%30.57 "Hg10 mi
11:00 AM63 °FSunny.14 mph77%30.57 "Hg10 mi
10:00 AM59 °FScattered clouds.13 mph82%30.57 "HgN/A
9:00 AM59 °FLight rain. Partly sunny.16 mph77%30.54 "HgN/A
8:00 AM57 °FLight rain. Partly sunny.15 mph88%30.51 "HgN/A
7:01 AM57 °FPartly sunny.23 mph88%30.48 "HgN/A
6:00 AM59 °FPartly cloudy.16 mph72%30.45 "HgN/A
5:00 AM59 °FPassing clouds.14 mph77%30.42 "HgN/A
4:00 AM59 °FClear.13 mph72%30.42 "Hg10 mi
3:00 AM57 °FClear.10 mph77%30.42 "Hg10 mi
2:00 AM59 °FClear.16 mph72%30.42 "Hg10 mi
Weather by CustomWeather, © 2014

See weather overviewHow to use our weather pages